Dyersburg, TN

4:03 PM CDT on May 24, 2017 (GMT -0500)
Dyersburg Municipal

Weather History for KDYR - April, 2013

Change the Weather History Date:

Monday, April 1, 2013

  Actual Average Record
Temperature  
Mean Temperature 50 °F -  
Max Temperature 59 °F 63 °F 86 °F (2012)
Min Temperature 42 °F 46 °F 35 °F (2001)
Degree Days  
Heating Degree Days 14    
Moisture  
Dew Point 35 °F    
Average Humidity 55    
Maximum Humidity 76    
Minimum Humidity 42    
Precipitation  
Precipitation 0.00 in - - ()
Sea Level Pressure  
Sea Level Pressure 30.08 in    
Wind  
Wind Speed 6 mph (North)    
Max Wind Speed 14 mph    
Max Gust Speed 18 mph    
Visibility 10 miles    
Events      
Averages and records for this station are not official NWS values.
T = Trace of Precipitation, MM = Missing Value Source: NWS Daily Summary

Daily Weather History Graph

Daily Weather History Graph

Search for Another Location

Airport or City:

Trip Planner

Search our weather history database for the weather conditions in past years. The results will help you decide how hot, cold, wet, or windy it might be!

Date:

Astronomy

Apr. 01, 2013 Rise Set
Actual Time 6:43 AM CDT 7:19 PM CDT
Civil Twilight 6:17 AM CDT 7:45 PM CDT
Nautical Twilight 5:47 AM CDT 8:16 PM CDT
Astronomical Twilight 5:16 AM CDT 8:47 PM CDT
Moon 12:19 AM CDT (4/1) 10:38 AM CDT (4/1)
Length of Visible Light 13h 27m
Length of Day
12h 36m
Waning Gibbous, 67% of the Moon is Illuminated
Apr 1
Waning Gibbous
Apr 2
Last Quarter
Apr 10
New
Apr 18
First Quarter
Apr 25
Full

Hourly Weather History & Observations

Time (CDT) Temp. Windchill Dew Point Humidity Pressure Visibility Wind Dir Wind Speed Gust Speed Precip Events Conditions
12:15 AM 46.4 °F - 39.2 °F 76% 29.95 in 10.0 mi Calm Calm - N/A   Clear
12:35 AM 44.6 °F - 37.4 °F 76% 29.95 in 7.0 mi Calm Calm - N/A   Clear
12:55 AM 44.6 °F 43.1 °F 37.4 °F 76% 29.94 in 10.0 mi SW 3.5 mph - N/A   Clear
1:15 AM 44.6 °F - 37.4 °F 76% 29.95 in 9.0 mi Calm Calm - N/A   Clear
1:35 AM 44.6 °F - 37.4 °F 76% 29.95 in 10.0 mi Calm Calm - N/A   Clear
1:55 AM 42.8 °F - 35.6 °F 76% 29.95 in 10.0 mi Calm Calm - N/A   Clear
2:15 AM 44.6 °F - 35.6 °F 71% 29.95 in 9.0 mi Calm Calm - N/A   Clear
2:35 AM 44.6 °F 43.1 °F 35.6 °F 71% 29.95 in 5.0 mi SW 3.5 mph - N/A   Clear
2:55 AM 44.6 °F 42.2 °F 37.4 °F 76% 29.95 in 10.0 mi WSW 4.6 mph - N/A   Clear
3:15 AM 46.4 °F 44.3 °F 39.2 °F 76% 29.95 in 10.0 mi WSW 4.6 mph - N/A   Clear
3:35 AM 46.4 °F - 37.4 °F 71% 29.95 in 10.0 mi Calm Calm - N/A   Clear
3:55 AM 44.6 °F 43.1 °F 35.6 °F 71% 29.96 in 10.0 mi West 3.5 mph - N/A   Clear
4:15 AM 46.4 °F 45.2 °F 37.4 °F 71% 29.97 in 10.0 mi WNW 3.5 mph - N/A   Clear
4:35 AM 46.4 °F 44.3 °F 39.2 °F 76% 29.97 in 10.0 mi West 4.6 mph - N/A   Clear
4:55 AM 46.4 °F 43.5 °F 37.4 °F 71% 29.98 in 10.0 mi West 5.8 mph - N/A   Clear
5:15 AM 46.4 °F 44.3 °F 37.4 °F 71% 29.99 in 10.0 mi WNW 4.6 mph - N/A   Clear
5:35 AM 46.4 °F 44.3 °F 37.4 °F 71% 30.00 in 10.0 mi WNW 4.6 mph - N/A   Clear
5:55 AM 46.4 °F 44.3 °F 37.4 °F 71% 30.01 in 10.0 mi NW 4.6 mph - N/A   Clear
6:15 AM 46.4 °F 43.5 °F 37.4 °F 71% 30.02 in 10.0 mi North 5.8 mph - N/A   Clear
6:35 AM 46.4 °F 42.4 °F 37.4 °F 71% 30.03 in 10.0 mi North 8.1 mph - N/A   Clear
7:15 AM 46.4 °F 40.4 °F 35.6 °F 66% 30.05 in 10.0 mi NNE 13.8 mph - N/A   Clear
7:35 AM 48.2 °F - 35.6 °F 62% 30.07 in 10.0 mi NNE 12.7 mph - N/A   Clear
8:15 AM 48.2 °F - 35.6 °F 62% 30.09 in 10.0 mi NNE 12.7 mph - N/A   Clear
8:35 AM 48.2 °F - 33.8 °F 58% 30.09 in 10.0 mi NNE 12.7 mph - N/A   Clear
8:55 AM 48.2 °F - 33.8 °F 58% 30.10 in 10.0 mi NNE 12.7 mph - N/A   Clear
9:15 AM 50.0 °F - 33.8 °F 54% 30.11 in 10.0 mi NE 13.8 mph - N/A   Clear
9:35 AM 51.8 °F - 32.0 °F 47% 30.12 in 8.0 mi NNE 13.8 mph 18.4 mph N/A   Clear
9:55 AM 51.8 °F - 33.8 °F 50% 30.11 in 10.0 mi NNE 10.4 mph - N/A   Clear
10:15 AM 51.8 °F - 33.8 °F 50% 30.12 in 8.0 mi NE 11.5 mph - N/A   Clear
10:35 AM 53.6 °F - 33.8 °F 47% 30.14 in 10.0 mi NNE 12.7 mph - N/A   Clear
11:15 AM 53.6 °F - 33.8 °F 47% 30.14 in 10.0 mi NE 13.8 mph - N/A   Clear
11:35 AM 55.4 °F - 35.6 °F 47% 30.15 in 10.0 mi ENE 11.5 mph 17.3 mph N/A   Clear
11:55 AM 55.4 °F - 35.6 °F 47% 30.15 in 10.0 mi NNE 9.2 mph 16.1 mph N/A   Clear
12:35 PM 55.4 °F - 35.6 °F 47% 30.15 in 10.0 mi NNE 10.4 mph 17.3 mph N/A   Clear
12:55 PM 57.2 °F - 37.4 °F 48% 30.14 in 10.0 mi North 6.9 mph - N/A   Clear
1:15 PM 57.2 °F - 35.6 °F 44% 30.15 in 10.0 mi NNE 9.2 mph - N/A   Clear
1:35 PM 57.2 °F - 35.6 °F 44% 30.14 in 10.0 mi North 11.5 mph - N/A   Clear
1:55 PM 57.2 °F - 35.6 °F 44% 30.13 in 10.0 mi NE 3.5 mph 16.1 mph N/A   Clear
2:15 PM 57.2 °F - 35.6 °F 44% 30.13 in 10.0 mi NNW 5.8 mph - N/A   Clear
2:35 PM 59.0 °F - 37.4 °F 45% 30.12 in 10.0 mi North 9.2 mph - N/A   Clear
3:15 PM 59.0 °F - 37.4 °F 45% 30.12 in 10.0 mi NNW 12.7 mph 17.3 mph N/A   Clear
3:35 PM 59.0 °F - 37.4 °F 45% 30.12 in 10.0 mi NNW 9.2 mph - N/A   Clear
3:55 PM 59.0 °F - 35.6 °F 42% 30.12 in 10.0 mi North 9.2 mph - N/A   Clear
4:15 PM 59.0 °F - 35.6 °F 42% 30.12 in 10.0 mi NNW 9.2 mph - N/A   Clear
4:35 PM 59.0 °F - 35.6 °F 42% 30.12 in 10.0 mi NW 8.1 mph - N/A   Clear
4:55 PM 57.2 °F - 35.6 °F 44% 30.12 in 10.0 mi North 3.5 mph - N/A   Partly Cloudy
5:15 PM 57.2 °F - 35.6 °F 44% 30.12 in 10.0 mi NNW 6.9 mph - N/A   Clear
5:35 PM 57.2 °F - 35.6 °F 44% 30.12 in 10.0 mi North 12.7 mph - N/A   Clear
5:55 PM 57.2 °F - 35.6 °F 44% 30.12 in 10.0 mi North 9.2 mph - N/A   Clear
6:15 PM 55.4 °F - 33.8 °F 44% 30.12 in 10.0 mi North 6.9 mph - N/A   Clear
6:35 PM 55.4 °F - 33.8 °F 44% 30.12 in 10.0 mi NNW 4.6 mph - N/A   Partly Cloudy
6:55 PM 55.4 °F - 33.8 °F 44% 30.12 in 10.0 mi North 8.1 mph - N/A   Clear
7:15 PM 53.6 °F - 33.8 °F 47% 30.13 in 10.0 mi North 8.1 mph - N/A   Clear
7:35 PM 53.6 °F - 33.8 °F 47% 30.13 in 10.0 mi North 3.5 mph - N/A   Clear
7:55 PM 51.8 °F - 33.8 °F 50% 30.14 in 10.0 mi NE 5.8 mph - N/A   Clear
8:15 PM 51.8 °F - 33.8 °F 50% 30.14 in 10.0 mi NE 6.9 mph - N/A   Clear
8:35 PM 51.8 °F - 33.8 °F 50% 30.14 in 10.0 mi NE 6.9 mph - N/A   Clear
8:55 PM 51.8 °F - 32.0 °F 47% 30.15 in 10.0 mi NNE 10.4 mph - N/A   Clear
9:15 PM 51.8 °F - 30.2 °F 44% 30.16 in 10.0 mi NNE 12.7 mph - N/A   Clear
9:35 PM 50.0 °F - 28.4 °F 43% 30.17 in 10.0 mi NE 10.4 mph - N/A   Clear
9:55 PM 48.2 °F - 28.4 °F 46% 30.17 in 10.0 mi NE 9.2 mph - N/A   Clear
10:15 PM 48.2 °F - 28.4 °F 46% 30.17 in 10.0 mi NNE 10.4 mph - N/A   Clear
10:35 PM 48.2 °F - 28.4 °F 46% 30.17 in 10.0 mi NE 11.5 mph - N/A   Clear
10:55 PM 46.4 °F 41.9 °F 28.4 °F 50% 30.17 in 10.0 mi NE 9.2 mph - N/A   Clear
11:15 PM 46.4 °F 42.9 °F 28.4 °F 50% 30.17 in 10.0 mi NE 6.9 mph - N/A   Clear
11:35 PM 46.4 °F 42.4 °F 26.6 °F 46% 30.17 in 10.0 mi NE 8.1 mph - N/A   Clear
11:55 PM 46.4 °F 41.5 °F 26.6 °F 46% 30.17 in 10.0 mi NE 10.4 mph - N/A   Clear